When you browse on this site, cookies collect data to enhance your experience and personalize the content and advertising you see.
Visit our Privacy Policy to learn more. By continuing to use the site, you agree to this use of cookies and data.
  • In Portugal
  • List of Countries
  • For 7 days
  • Water Temperature
  • Satellite Maps
  • Weather Map
  • Weather Widgets
  • user-avatar
    Login

    Hourly Weather Przybenice

    Today, 26 June, Wednesday

    Time Temperature Precipitation Wind Pressure Humidity
    00:00 +23°C° 0 mm 2 mps 749 mmHg 95%
    01:00 +22°C° 0 mm 1 mps 749 mmHg 95%
    02:00 +22°C° 0 mm 1 mps 749 mmHg 95%
    03:00 +22°C° 0 mm 1 mps 749 mmHg 94%
    04:00 +22°C° 0 mm 1 mps 748 mmHg 94%
    05:00 +23°C° 0 mm 1 mps 748 mmHg 89%
    06:00 +25°C° 0 mm 1 mps 749 mmHg 84%
    07:00 +27°C° 0 mm 1 mps 749 mmHg 78%
    08:00 +28°C° 0 mm 1 mps 749 mmHg 72%
    09:00 +30°C° 0 mm 1 mps 748 mmHg 66%
    10:00 +31°C° 0 mm 1 mps 748 mmHg 61%
    11:00 +32°C° 0 mm 2 mps 748 mmHg 57%
    12:00 +34°C° 0 mm 2 mps 748 mmHg 52%
    13:00 +34°C° 0 mm 3 mps 748 mmHg 48%
    14:00 +35°C° 0 mm 3 mps 747 mmHg 50%
    15:00 +35°C° 0 mm 3 mps 746 mmHg 51%
    16:00 +35°C° 0 mm 3 mps 746 mmHg 52%
    17:00 +33°C° 0 mm 3 mps 746 mmHg 58%
    18:00 +30°C° 0 mm 3 mps 745 mmHg 64%
    19:00 +28°C° 0 mm 3 mps 745 mmHg 70%
    20:00 +28°C° 0 mm 4 mps 745 mmHg 72%
    21:00 +27°C° 0 mm 4 mps 745 mmHg 74%
    22:00 +26°C° 0 mm 4 mps 744 mmHg 76%
    23:00 +26°C° 0.1 mm 4 mps 744 mmHg 78%

    Tomorrow, 27 June, Thursday

    Time Temperature Precipitation Wind Pressure Humidity
    00:00 +25°C° 0.1 mm 5 mps 744 mmHg 79%
    01:00 +25°C° 0.1 mm 5 mps 744 mmHg 81%
    02:00 +25°C° 1 mm 5 mps 744 mmHg 84%
    03:00 +23°C° 1 mm 5 mps 744 mmHg 88%
    04:00 +22°C° 1 mm 5 mps 743 mmHg 91%
    05:00 +23°C° 0.2 mm 5 mps 743 mmHg 90%
    06:00 +23°C° 0.2 mm 5 mps 743 mmHg 89%
    07:00 +23°C° 0.2 mm 5 mps 744 mmHg 88%
    08:00 +24°C° 0.1 mm 6 mps 744 mmHg 80%
    09:00 +24°C° 0.1 mm 7 mps 744 mmHg 73%
    10:00 +26°C° 0.1 mm 8 mps 744 mmHg 66%
    11:00 +26°C° 0 mm 8 mps 743 mmHg 59%
    12:00 +26°C° 0 mm 8 mps 743 mmHg 52%
    13:00 +26°C° 0 mm 8 mps 743 mmHg 46%
    14:00 +26°C° 0 mm 7 mps 743 mmHg 47%
    15:00 +24°C° 0 mm 7 mps 743 mmHg 49%
    16:00 +23°C° 0 mm 7 mps 743 mmHg 50%
    17:00 +22°C° 0 mm 6 mps 743 mmHg 56%
    18:00 +21°C° 0 mm 5 mps 743 mmHg 62%
    19:00 +19°C° 0 mm 5 mps 742 mmHg 69%
    20:00 +18°C° 0 mm 4 mps 743 mmHg 71%
    21:00 +18°C° 0 mm 4 mps 743 mmHg 74%
    22:00 +17°C° 0 mm 4 mps 744 mmHg 77%
    23:00 +15°C° 0 mm 4 mps 744 mmHg 81%

    Day after tomorrow, 28 June, Friday

    Time Temperature Precipitation Wind Pressure Humidity
    00:00 +15°C° 0 mm 4 mps 744 mmHg 85%
    01:00 +14°C° 0 mm 4 mps 744 mmHg 89%
    02:00 +14°C° 0 mm 4 mps 744 mmHg 92%
    03:00 +13°C° 0 mm 4 mps 744 mmHg 94%
    04:00 +13°C° 0 mm 4 mps 744 mmHg 96%
    05:00 +14°C° 0 mm 4 mps 745 mmHg 87%
    06:00 +15°C° 0 mm 4 mps 745 mmHg 77%
    07:00 +17°C° 0 mm 3 mps 745 mmHg 68%
    08:00 +18°C° 0 mm 4 mps 745 mmHg 63%
    09:00 +19°C° 0 mm 4 mps 745 mmHg 57%
    10:00 +20°C° 0 mm 4 mps 745 mmHg 52%
    11:00 +21°C° 0 mm 4 mps 745 mmHg 52%
    12:00 +21°C° 0 mm 4 mps 745 mmHg 51%
    13:00 +22°C° 0 mm 4 mps 744 mmHg 51%
    14:00 +22°C° 0.1 mm 4 mps 744 mmHg 55%
    15:00 +22°C° 0.1 mm 4 mps 744 mmHg 58%
    16:00 +22°C° 0.1 mm 5 mps 744 mmHg 61%
    17:00 +21°C° 0.3 mm 4 mps 744 mmHg 68%
    18:00 +19°C° 0.3 mm 4 mps 744 mmHg 75%
    19:00 +18°C° 0.3 mm 3 mps 744 mmHg 82%
    20:00 +17°C° 0 mm 3 mps 744 mmHg 82%
    21:00 +14°C° 0 mm 3 mps 745 mmHg 81%
    22:00 +12°C° 0 mm 3 mps 745 mmHg 81%
    23:00 +12°C° 0 mm 3 mps 745 mmHg 82%

    29 June, Saturday

    Time Temperature Precipitation Wind Pressure Humidity
    00:00 +11°C° 0 mm 3 mps 745 mmHg 83%
    01:00 +10°C° 0 mm 3 mps 745 mmHg 84%
    02:00 +10°C° 0 mm 3 mps 746 mmHg 83%
    03:00 +10°C° 0 mm 3 mps 746 mmHg 83%
    04:00 +9°C° 0 mm 2 mps 746 mmHg 82%
    05:00 +11°C° 0 mm 3 mps 746 mmHg 76%
    06:00 +13°C° 0 mm 3 mps 746 mmHg 70%
    07:00 +15°C° 0 mm 4 mps 746 mmHg 64%
    08:00 +18°C° 0 mm 4 mps 746 mmHg 60%
    09:00 +19°C° 0 mm 4 mps 746 mmHg 56%
    10:00 +21°C° 0 mm 4 mps 746 mmHg 52%
    11:00 +21°C° 0 mm 5 mps 746 mmHg 51%
    12:00 +22°C° 0 mm 5 mps 746 mmHg 50%
    13:00 +23°C° 0 mm 5 mps 746 mmHg 49%
    14:00 +23°C° 0 mm 4 mps 745 mmHg 50%
    15:00 +23°C° 0 mm 4 mps 745 mmHg 50%
    16:00 +25°C° 0 mm 4 mps 745 mmHg 51%
    17:00 +22°C° 0 mm 3 mps 745 mmHg 57%
    18:00 +21°C° 0 mm 2 mps 745 mmHg 62%
    19:00 +21°C° 0 mm 1 mps 745 mmHg 67%
    20:00 +20°C° 0 mm 1 mps 745 mmHg 69%
    21:00 +19°C° 0 mm 1 mps 745 mmHg 70%
    22:00 +16°C° 0 mm 1 mps 746 mmHg 72%
    23:00 +16°C° 0 mm 2 mps 746 mmHg 72%

    30 June, Sunday

    Time Temperature Precipitation Wind Pressure Humidity
    00:00 +15°C° 0 mm 2 mps 746 mmHg 73%
    01:00 +15°C° 0 mm 2 mps 745 mmHg 74%
    02:00 +15°C° 0 mm 2 mps 745 mmHg 75%
    03:00 +15°C° 0 mm 2 mps 745 mmHg 76%
    04:00 +14°C° 0 mm 2 mps 745 mmHg 78%
    05:00 +16°C° 0 mm 2 mps 745 mmHg 73%
    06:00 +18°C° 0 mm 2 mps 746 mmHg 68%
    07:00 +20°C° 0 mm 2 mps 746 mmHg 64%
    08:00 +23°C° 0 mm 2 mps 746 mmHg 58%
    09:00 +25°C° 0 mm 2 mps 746 mmHg 53%
    10:00 +26°C° 0 mm 2 mps 746 mmHg 48%
    11:00 +27°C° 0 mm 2 mps 745 mmHg 46%
    12:00 +28°C° 0 mm 2 mps 745 mmHg 44%
    13:00 +29°C° 0 mm 2 mps 745 mmHg 42%
    14:00 +29°C° 0 mm 2 mps 745 mmHg 43%
    15:00 +29°C° 0 mm 2 mps 744 mmHg 43%
    16:00 +29°C° 0 mm 2 mps 744 mmHg 44%
    17:00 +28°C° 0 mm 2 mps 744 mmHg 52%
    18:00 +26°C° 0 mm 3 mps 744 mmHg 60%
    19:00 +25°C° 0 mm 3 mps 743 mmHg 68%
    20:00 +22°C° 0 mm 3 mps 743 mmHg 71%
    21:00 +21°C° 0 mm 2 mps 743 mmHg 74%
    22:00 +20°C° 0 mm 2 mps 743 mmHg 77%
    23:00 +19°C° 0 mm 2 mps 743 mmHg 80%

    1 July, Monday

    Time Temperature Precipitation Wind Pressure Humidity
    00:00 +19°C° 0 mm 2 mps 743 mmHg 82%
    01:00 +18°C° 0 mm 3 mps 743 mmHg 85%
    02:00 +18°C° 0 mm 3 mps 743 mmHg 86%
    03:00 +18°C° 0 mm 3 mps 742 mmHg 86%
    04:00 +17°C° 0 mm 3 mps 742 mmHg 87%
    05:00 +19°C° 0 mm 3 mps 742 mmHg 80%
    06:00 +21°C° 0 mm 3 mps 742 mmHg 73%
    07:00 +23°C° 0 mm 4 mps 742 mmHg 66%
    08:00 +25°C° 0 mm 4 mps 742 mmHg 63%
    09:00 +27°C° 0 mm 4 mps 742 mmHg 61%
    10:00 +28°C° 0 mm 4 mps 742 mmHg 58%
    11:00 +29°C° 0 mm 4 mps 742 mmHg 56%
    12:00 +30°C° 0 mm 4 mps 742 mmHg 54%
    13:00 +32°C° 0 mm 4 mps 741 mmHg 52%
    14:00 +33°C° 0 mm 4 mps 741 mmHg 52%
    15:00 +33°C° 0 mm 4 mps 740 mmHg 52%
    16:00 +33°C° 0 mm 4 mps 740 mmHg 53%
    17:00 +29°C° 1.4 mm 5 mps 740 mmHg 64%
    18:00 +26°C° 1.4 mm 5 mps 739 mmHg 76%
    19:00 +22°C° 1.4 mm 5 mps 739 mmHg 87%
    20:00 +21°C° 1.2 mm 4 mps 739 mmHg 89%
    21:00 +21°C° 1.2 mm 3 mps 740 mmHg 90%
    22:00 +20°C° 1.2 mm 3 mps 740 mmHg 92%
    23:00 +20°C° 0.7 mm 3 mps 739 mmHg 93%
    Show more